{"data":{"norad_id":50816,"epoch":"2026-05-24T14:30:22.858272Z","epoch_age_seconds":123313,"freshness":"FRESH","line1":"1 50816U 22001P   26144.60443123  .00015792  00000+0  81607-3 0  9993","line2":"2 50816  53.2125 183.4780 0003041  40.2342 319.8878 15.16453561241934","mean_motion":15.16453561,"eccentricity":0.0003041,"inclination_deg":53.2125,"raan_deg":183.478,"arg_perigee_deg":40.2342,"mean_anomaly_deg":319.8878,"bstar":0.00081607,"rev_number":24193,"period_min":94.958397476439,"perigee_km":514.472518322,"apogee_km":518.66587863191,"semimajor_km":6894.706198477,"source":"CELESTRAK","updated_at":"2026-05-25T13:38:16.876431Z"}}